Wind_Speed
30 30 30 31 32 33 34 34 34 34 34 33 33 33 33 32 32 31 31 30 29 28 26 25 24 24 24 24 24 25 25 24 24 23 22 21 20 19 18 17 17 17 17 16 16 16 17 17 17 17 17 17 17 17 17 18 18 19 20 21 22 23 24 24 25 25 26 26 26
29 29 29 31 32 33 34 34 34 34 34 34 33 33 33 32 32 31 31 30 28 27 26 24 24 23 23 24 24 24 24 24 24 23 23 22 21 20 19 18 18 18 18 17 17 17 17 17 17 17 17 17 17 17 18 18 19 19 20 21 22 23 24 25 25 26 26 26 27
28 28 29 31 33 34 35 35 35 35 35 34 34 33 33 32 31 31 30 29 28 26 25 24 24 23 23 23 23 23 24 24 24 23 23 22 22 21 20 19 19 19 19 18 18 18 18 18 18 18 17 17 17 18 18 19 19 20 21 22 23 24 25 25 26 26 26 27 27
27 28 30 32 34 35 36 36 36 36 35 34 34 33 33 32 31 30 29 28 27 26 25 24 24 23 23 23 23 23 23 24 24 24 24 23 22 21 20 20 20 19 19 19 19 18 18 18 18 18 18 18 18 18 18 19 20 21 22 22 23 24 25 25 26 26 27 27 27
28 29 31 33 34 35 36 36 36 36 35 35 34 33 33 32 31 30 29 28 27 26 26 25 24 24 23 23 22 23 23 24 24 24 24 24 23 22 21 21 20 20 20 20 19 19 19 19 19 18 18 18 18 18 18 19 20 21 22 23 24 25 25 26 26 27 27 28 28
29 30 32 33 34 35 36 36 36 36 35 35 34 33 33 32 31 30 29 28 28 27 26 25 25 24 24 23 23 23 23 24 25 25 25 24 23 22 22 21 21 21 20 20 20 19 19 19 19 19 19 19 18 18 19 19 20 21 22 23 24 25 26 26 27 27 28 28 28
31 32 33 34 35 35 36 36 36 35 35 34 34 33 32 31 30 30 29 28 27 27 27 26 26 25 24 23 23 23 24 24 25 25 25 24 24 23 22 22 21 21 21 20 20 20 20 20 19 19 19 19 19 19 19 20 20 22 23 24 25 26 26 27 27 28 28 28 29
33 34 35 36 36 36 36 36 36 35 35 34 33 32 31 31 30 29 29 28 28 28 27 27 26 25 25 24 23 23 24 25 25 25 25 24 24 23 22 22 22 22 21 21 20 20 20 20 20 19 19 19 19 19 20 20 21 22 23 24 25 26 27 27 28 28 28 29 29
35 35 36 36 36 36 36 36 35 35 34 33 32 31 31 30 29 29 29 28 28 28 28 27 27 26 25 24 24 24 24 25 25 25 25 24 24 23 23 22 22 22 21 21 21 20 20 20 20 20 20 19 19 20 20 21 22 23 24 25 26 26 27 28 28 28 29 29 29
35 36 37 37 37 36 36 35 35 34 33 33 31 31 30 30 29 29 29 29 29 28 28 28 27 26 25 24 24 24 24 25 25 25 25 24 24 23 23 23 22 22 21 21 21 20 20 20 20 20 20 20 20 20 21 22 23 24 25 26 26 27 27 28 28 29 29 30 30
35 36 37 37 36 36 35 35 34 34 33 32 31 30 30 30 30 29 29 29 29 29 29 28 27 26 25 25 24 24 24 25 25 25 24 24 24 23 23 22 22 22 21 21 21 21 21 20 20 20 20 20 20 21 22 23 24 25 26 27 27 27 28 28 29 29 29 30 30
34 35 35 35 35 35 34 34 33 33 32 31 31 30 30 30 30 30 30 30 30 30 29 28 27 26 25 25 25 25 25 25 25 25 24 24 23 23 23 22 22 22 21 21 21 21 21 21 20 20 20 21 21 22 22 23 25 26 27 27 28 28 28 29 29 29 30 30 31
32 33 33 34 34 34 33 33 32 32 31 31 31 30 30 30 30 30 30 31 30 30 29 28 27 26 25 25 25 25 25 25 25 24 24 24 23 23 22 22 22 21 21 21 21 21 21 21 20 20 21 21 22 22 23 24 25 26 27 28 28 29 29 29 30 30 30 31 31
30 31 32 32 32 32 32 31 31 31 31 31 30 30 30 30 30 31 31 31 30 29 29 28 27 26 25 25 25 25 25 25 24 24 24 23 23 22 22 22 21 21 21 21 21 21 21 21 21 21 21 22 22 23 24 25 26 27 28 29 29 29 30 30 30 30 31 31 32
29 29 30 31 31 31 31 30 30 30 30 30 30 30 30 30 30 31 31 30 30 29 28 27 26 26 25 25 25 25 25 25 24 24 23 23 22 22 22 21 21 21 21 20 21 21 21 21 21 21 22 22 23 24 25 26 27 28 29 29 29 30 30 30 31 31 31 31 32
28 29 29 30 30 30 30 29 29 29 29 29 29 29 30 30 30 30 30 30 29 29 28 27 26 26 25 25 25 25 25 25 24 24 23 23 22 22 21 21 20 20 20 20 20 21 21 21 22 22 23 23 24 25 26 27 28 29 29 30 30 30 31 31 31 31 32 32 32
27 28 29 30 30 29 29 28 28 28 28 28 28 29 29 30 30 30 30 30 29 28 27 27 26 26 25 25 25 25 25 24 24 24 23 22 22 21 21 20 20 20 20 20 20 21 21 22 22 23 24 25 25 26 27 28 29 29 30 30 31 31 31 32 32 32 32 32 32
27 28 29 29 29 29 28 27 27 26 26 27 27 28 29 29 30 30 29 29 29 28 27 26 25 25 25 25 25 25 25 24 24 23 22 21 21 20 20 20 20 20 20 20 20 21 21 22 23 24 25 26 27 28 29 29 30 30 30 31 31 32 32 32 33 33 32 32 32
25 26 28 29 28 28 27 26 25 25 25 25 26 27 28 28 29 29 29 29 28 27 26 25 25 25 25 25 25 25 24 24 23 22 21 20 20 20 20 20 20 20 20 20 21 21 22 23 24 25 26 27 28 29 30 30 31 31 31 32 32 33 33 33 33 33 33 32 32
23 25 26 27 27 27 26 25 24 24 24 24 25 26 27 28 28 28 28 28 27 26 26 25 25 25 25 25 25 24 24 23 22 21 20 20 20 19 19 19 20 20 20 21 21 22 23 24 25 26 27 28 29 30 31 31 31 32 32 33 33 34 34 34 34 34 33 33 32
21 23 25 26 26 25 24 24 23 23 23 23 24 25 26 27 27 27 27 27 26 26 25 25 24 24 24 24 24 24 23 22 21 20 20 20 19 19 19 19 20 20 21 21 22 22 23 24 26 27 28 29 30 31 31 31 32 33 33 34 35 35 35 35 35 34 33 33 32
21 22 23 24 24 24 23 22 22 22 22 22 23 24 25 25 25 26 26 26 26 25 25 24 24 24 24 23 23 22 22 21 20 20 20 19 19 19 19 19 20 20 21 22 22 23 24 25 27 28 29 30 30 31 31 32 33 33 34 35 36 36 36 36 35 34 33 33 32
20 21 22 23 23 22 22 21 21 21 21 21 22 23 23 24 25 25 25 25 25 25 24 24 23 23 23 22 22 21 21 20 20 20 19 19 19 19 19 20 20 20 21 22 23 24 25 26 28 29 30 30 31 31 32 32 33 34 35 36 37 37 36 36 35 34 33 33 32
20 21 22 22 22 21 21 20 20 20 20 21 21 22 22 23 24 24 24 25 24 24 23 23 22 22 22 21 21 20 20 20 20 19 19 19 19 19 19 20 20 21 22 23 24 25 26 27 29 30 31 31 32 32 33 34 35 35 36 37 37 37 36 36 35 34 33 33 32
20 20 20 20 20 20 19 19 19 19 19 20 20 21 22 22 23 23 23 23 23 23 22 22 22 21 21 20 20 20 20 19 19 19 19 19 19 19 20 20 21 22 23 24 25 26 27 29 30 31 32 32 33 34 35 35 36 37 37 37 37 37 36 36 35 34 33 32 32
19 19 19 19 18 18 18 18 18 18 19 19 20 20 21 21 22 22 22 22 22 22 21 21 20 20 19 19 19 19 19 19 19 19 19 19 19 20 20 21 22 23 24 25 26 28 29 30 31 32 33 34 35 36 36 37 37 37 37 37 37 37 37 36 36 35 34 33 32
18 18 18 18 17 17 17 17 18 18 18 18 19 19 20 20 20 21 21 21 21 20 20 19 19 19 18 19 19 19 19 19 18 19 19 19 20 20 21 22 24 25 26 27 28 29 30 31 32 34 35 36 37 37 38 38 38 38 37 37 37 37 37 36 36 35 34 33 32
18 18 17 17 17 17 17 17 17 18 18 18 18 18 19 19 19 19 19 20 19 19 19 18 18 18 18 18 18 18 18 18 18 18 19 19 20 21 23 24 25 26 27 28 29 31 31 32 33 34 35 37 37 38 38 38 38 37 37 37 37 37 36 36 35 34 34 33 32
17 17 17 16 16 16 17 17 17 17 17 17 17 18 18 18 18 18 18 18 18 17 17 17 17 17 17 17 17 17 18 18 18 19 19 20 21 23 24 25 26 28 29 30 31 32 33 34 34 35 36 36 37 37 37 37 37 37 36 36 36 36 35 35 35 34 33 32 32
15 15 15 15 16 16 16 16 17 17 17 17 17 17 17 17 17 17 17 16 16 16 15 15 16 16 16 16 17 17 17 18 18 19 20 22 23 24 26 27 28 29 30 31 32 33 34 35 35 36 36 36 36 36 36 36 36 35 35 36 35 35 35 34 34 33 33 32 31
14 14 14 14 14 15 15 15 16 16 16 16 16 16 16 16 16 15 15 14 14 14 14 15 15 15 15 16 16 17 17 18 19 20 22 23 25 26 28 29 30 31 31 32 33 34 35 35 36 36 36 36 35 35 35 35 35 35 35 35 35 35 34 34 33 33 32 31 30
12 12 12 12 13 13 13 14 14 15 15 15 14 14 14 14 13 13 12 12 12 13 13 13 14 14 15 15 16 17 18 19 21 22 24 25 27 28 30 31 31 32 33 33 34 35 35 36 36 36 36 35 35 35 35 35 35 35 35 35 35 35 34 34 33 33 32 31 30
10 10 10 10 11 11 11 12 12 12 12 12 12 12 11 11 10 10 10 10 11 11 12 13 13 14 15 16 17 18 20 21 23 24 26 27 29 30 31 32 33 33 34 35 35 36 36 36 36 36 36 35 35 35 35 35 35 35 35 35 35 35 34 34 33 33 32 31 30
8 8 8 8 8 8 9 9 9 9 9 9 8 8 8 7 7 7 8 8 9 10 11 12 13 14 16 17 18 20 22 23 25 26 28 29 30 32 33 34 34 35 35 35 36 36 36 36 36 36 36 36 35 35 35 35 35 35 36 36 36 35 35 34 34 33 32 31 31
5 5 5 5 5 5 5 5 5 5 5 4 4 4 4 4 4 5 6 7 9 10 11 13 14 16 17 19 20 22 24 25 27 28 29 30 32 33 34 35 35 36 36 36 36 36 36 36 36 36 36 35 35 35 35 35 35 36 36 36 36 36 35 35 34 33 32 32 31
1 1 1 1 1 1 1 1 1 0 0 0 0 0 1 2 3 5 6 8 10 11 13 14 16 17 19 21 22 24 25 27 28 29 30 31 32 33 35 35 36 36 36 36 36 36 36 36 36 35 35 35 35 35 35 35 35 36 36 36 36 36 35 35 34 34 33 32 31
4 5 5 5 5 5 5 5 4 4 3 3 2 1 1 3 4 6 8 9 11 13 14 16 18 20 21 23 24 25 27 28 29 30 31 32 33 34 35 36 37 37 37 37 36 36 36 36 35 35 34 34 34 34 34 35 35 36 36 36 37 36 36 35 35 34 33 32 31
8 9 9 9 9 8 7 7 6 5 4 2 1 1 3 4 6 8 10 11 13 15 17 18 20 22 23 24 26 27 28 29 30 31 32 33 34 35 36 37 38 38 38 37 36 36 36 35 34 34 33 33 33 33 34 34 35 35 36 36 36 36 36 35 35 34 33 33 32
10 10 10 9 9 8 7 6 5 4 2 1 2 3 5 7 9 10 12 14 16 17 19 21 22 23 24 26 27 28 29 30 31 32 33 34 35 36 37 38 38 38 37 36 36 35 35 34 33 33 32 32 32 32 33 33 34 35 35 36 36 36 36 35 35 34 34 33 32
10 9 9 8 7 6 5 4 3 2 1 3 4 6 8 10 12 13 15 17 18 20 21 22 23 24 25 27 28 29 30 31 32 33 34 35 36 36 37 37 37 37 37 36 35 34 34 33 33 32 31 31 32 32 32 32 33 34 35 35 35 36 36 35 35 34 34 34 33
9 8 7 6 5 4 3 2 2 3 4 6 7 9 11 13 14 16 17 19 20 21 22 23 24 25 27 28 29 31 32 33 34 34 35 35 36 36 36 36 36 36 36 35 34 34 33 32 32 31 31 31 31 31 31 32 33 34 35 35 35 35 35 35 35 34 34 34 33
Wind_Direction
231 230 229 229 230 231 231 232 234 235 237 238 239 241 242 244 245 246 247 247 247 246 246 246 245 244 243 242 240 239 238 237 237 237 238 241 245 249 253 258 264 270 276 283 289 294 297 298 299 298 298 297 298 300 302 304 307 309 310 312 313 315 316 317 318 319 320 321 321
229 228 227 228 229 230 230 231 233 234 236 237 239 241 242 244 245 246 247 248 248 248 248 248 247 246 245 243 241 240 238 237 237 237 238 240 244 248 252 257 263 269 275 282 288 292 295 296 297 296 296 296 297 298 300 302 305 307 309 310 312 314 315 316 317 318 319 320 320
227 225 225 227 228 229 229 230 232 233 235 237 238 240 242 244 245 247 248 249 250 250 250 249 249 248 246 245 242 240 238 237 236 236 237 240 243 247 251 256 262 268 274 281 287 291 294 295 295 295 294 294 295 297 299 301 304 306 307 309 311 313 314 315 316 317 318 318 318
224 223 224 226 227 229 230 231 232 234 235 237 239 240 242 244 245 247 248 249 250 250 250 250 250 249 248 246 243 240 238 236 235 235 237 239 243 247 251 256 261 267 273 279 285 290 292 294 294 293 293 293 294 296 298 300 303 305 307 308 310 311 312 314 315 316 316 317 317
220 221 224 227 228 230 231 233 234 235 237 239 240 241 243 244 245 246 247 248 249 250 250 251 251 251 249 247 244 240 237 235 234 234 236 239 242 246 251 256 261 267 273 279 284 288 291 292 293 292 292 292 294 295 297 299 302 304 306 307 309 310 311 313 314 314 315 315 316
217 220 224 227 229 231 233 234 236 237 239 240 241 243 244 245 246 246 247 248 249 250 252 252 253 252 250 247 243 239 236 234 233 234 236 239 243 247 251 256 261 267 272 278 283 287 290 291 291 291 291 292 293 294 296 298 300 302 304 306 307 309 311 312 313 313 314 314 314
218 220 224 228 231 233 235 236 238 239 241 242 243 244 245 246 247 247 248 249 250 251 252 253 254 253 251 248 243 239 235 233 233 234 236 239 243 247 251 256 261 266 272 277 282 286 289 290 290 290 290 291 292 293 295 296 298 300 302 304 306 308 310 311 312 313 313 313 313
221 223 227 231 234 236 238 239 241 242 243 244 245 246 247 247 248 249 249 250 250 252 253 254 255 254 252 249 244 239 235 233 232 234 236 240 243 247 252 256 261 266 271 277 281 285 287 289 289 289 289 290 291 292 294 295 297 299 301 303 306 307 309 310 311 312 312 312 312
225 228 231 234 237 240 242 243 244 245 246 247 248 248 248 248 248 249 249 250 251 253 254 255 256 256 253 249 244 239 235 233 233 234 237 240 244 248 252 257 262 267 272 277 281 284 286 287 288 288 288 289 290 292 293 295 297 299 301 303 305 306 308 309 310 311 311 311 311
230 232 235 237 240 243 245 246 248 249 250 251 250 250 249 249 249 249 249 250 252 253 255 256 256 256 253 249 244 239 235 233 233 235 238 242 245 249 253 258 263 268 272 277 281 284 285 287 287 288 288 289 290 291 293 295 297 299 301 303 304 306 307 308 309 310 310 310 309
236 237 239 241 243 245 247 248 250 251 252 252 251 251 250 249 249 249 249 251 252 253 255 256 257 255 253 249 243 238 235 233 234 236 239 243 247 251 255 259 264 269 273 277 281 283 285 286 287 288 288 289 290 291 293 295 297 300 301 303 304 305 306 308 309 309 309 309 308
240 240 242 243 245 247 248 249 251 252 252 252 251 251 250 249 249 249 250 251 252 254 255 257 256 255 252 248 243 238 235 234 234 237 240 244 248 252 257 261 266 270 274 278 281 283 285 286 287 288 288 289 290 292 294 296 298 300 301 302 303 304 306 307 308 308 308 307 307
243 243 244 245 246 247 249 250 251 251 252 252 251 251 250 250 250 250 250 251 253 254 255 256 256 254 251 246 242 238 235 234 236 238 242 246 250 254 259 263 267 271 275 278 281 284 285 287 287 288 289 290 291 293 295 297 298 300 301 302 303 304 305 306 307 307 307 306 305
245 245 245 246 247 248 249 249 250 251 251 251 251 251 251 251 250 251 251 252 253 255 255 256 255 253 249 244 240 237 236 236 237 240 243 247 252 256 261 265 269 273 276 279 282 284 286 287 288 289 290 291 292 294 296 298 299 300 300 301 302 303 305 306 306 306 306 305 304
246 246 246 247 248 248 249 249 250 251 251 251 252 252 252 251 251 252 252 253 254 255 256 255 254 251 247 243 239 237 236 237 239 242 245 249 254 258 263 267 271 274 278 280 283 285 287 288 289 290 291 292 293 295 297 298 299 299 300 301 302 303 304 305 305 305 305 304 303
247 247 248 248 248 248 249 250 250 251 252 252 253 253 252 252 252 252 253 254 255 255 255 254 252 249 246 242 239 237 237 238 240 244 248 252 256 261 265 269 273 276 279 281 284 286 288 289 290 291 292 293 294 296 297 298 298 299 299 300 301 302 303 304 304 304 303 303 301
248 248 249 249 249 249 250 251 252 252 253 253 253 253 253 252 252 253 254 255 255 256 256 254 252 249 245 242 239 238 238 240 243 246 251 255 260 264 268 271 274 277 280 282 285 287 289 291 292 293 294 295 296 297 297 297 298 298 299 300 301 302 302 303 303 303 302 301 300
249 250 250 251 251 252 252 253 254 255 255 254 254 253 253 253 253 253 254 256 256 257 257 255 252 249 245 242 240 240 240 242 245 249 254 259 263 266 270 273 276 279 281 284 286 289 290 292 293 294 295 296 297 297 297 297 297 298 298 299 300 301 301 302 302 301 301 300 299
251 252 252 253 254 254 255 256 257 257 257 256 255 253 253 252 253 254 255 257 258 259 258 256 253 249 246 243 241 241 242 245 248 253 257 261 265 268 271 275 278 280 283 286 288 290 292 293 294 295 297 298 298 298 298 298 298 298 298 299 299 300 301 301 301 300 299 298 297
255 254 255 256 257 258 258 259 260 260 259 258 255 253 252 252 253 255 256 258 260 260 259 257 253 249 246 244 243 243 245 247 251 256 260 263 267 270 273 277 280 282 285 288 290 292 293 294 295 297 297 298 298 298 298 298 298 299 299 299 299 300 300 300 300 299 299 298 296
258 257 258 259 260 261 262 263 264 263 261 259 256 253 253 253 254 256 258 259 261 261 259 257 253 250 247 245 244 245 247 251 255 259 262 265 269 272 276 279 282 284 287 289 292 293 294 296 297 297 298 298 298 298 298 299 299 299 299 300 300 300 300 300 299 298 298 296 295
260 259 259 260 262 263 265 266 266 265 263 260 257 255 255 255 256 258 259 260 260 260 259 256 253 250 248 246 246 248 251 254 258 261 265 268 272 275 278 281 284 286 289 291 293 294 296 297 297 297 297 297 297 298 298 299 299 299 299 299 300 299 299 299 298 298 297 296 294
262 261 261 262 264 266 267 268 268 267 264 262 259 258 257 257 258 258 259 260 260 260 259 256 254 251 249 248 249 251 254 257 261 264 268 271 275 278 281 283 285 288 290 292 294 295 296 297 297 297 297 297 298 298 299 299 299 299 299 299 299 298 298 298 297 297 296 295 294
263 262 263 264 266 267 268 269 268 267 265 263 261 259 258 258 259 259 260 260 260 260 258 256 254 252 251 251 252 254 257 260 264 267 271 275 278 281 283 285 287 289 292 293 295 296 297 297 297 297 297 298 298 299 299 299 299 298 298 298 297 297 297 296 296 296 295 294 294
264 264 265 265 266 267 268 268 267 266 264 263 261 260 260 260 260 261 262 262 261 260 259 257 255 254 253 254 255 257 260 263 267 271 275 278 281 284 286 288 289 291 293 295 296 297 297 297 297 297 298 299 299 300 299 299 298 298 297 297 296 296 296 296 296 295 295 294 294
265 265 265 265 265 266 265 265 264 263 263 262 262 262 262 262 263 264 264 264 262 261 259 258 257 256 255 256 257 260 263 267 271 275 279 282 284 286 288 290 291 293 295 297 297 297 297 297 298 299 300 300 300 300 299 299 298 298 297 297 296 296 296 296 296 296 296 295 295
264 263 263 263 262 262 262 262 261 261 261 262 263 264 264 265 266 266 266 265 264 262 260 259 258 257 257 257 260 263 267 271 275 279 282 284 287 289 290 292 294 295 297 297 297 297 298 299 300 301 301 301 301 300 300 299 299 298 298 297 297 297 297 297 297 297 297 297 297
261 261 260 259 258 258 258 258 259 259 260 262 264 265 266 267 268 268 267 266 265 263 262 260 259 258 258 260 263 268 272 276 279 282 284 287 289 291 293 294 295 296 297 297 298 298 299 301 301 302 302 302 301 301 300 300 300 299 298 298 298 297 297 297 297 298 298 298 298
261 260 258 256 256 255 255 256 257 258 260 262 264 265 267 268 268 268 268 267 266 264 262 260 259 259 261 264 268 272 276 279 282 285 287 289 291 292 293 295 295 296 297 298 299 300 301 302 302 302 301 301 301 301 300 300 300 299 298 298 297 297 297 297 297 298 298 298 299
263 260 257 255 254 254 254 254 256 257 259 261 263 265 266 268 268 269 268 267 266 263 261 260 260 262 265 269 272 276 279 282 285 287 289 291 292 293 294 295 295 296 298 300 301 302 302 302 302 301 301 301 300 300 300 299 299 298 298 297 297 296 296 296 296 296 297 297 297
265 261 257 255 253 253 253 253 254 256 258 260 262 264 267 268 269 269 269 266 264 261 260 261 263 266 270 273 277 280 283 285 288 290 291 292 293 294 295 296 297 299 300 302 302 302 302 302 301 301 301 301 301 300 300 300 299 298 297 297 296 296 296 296 295 295 295 295 295
265 261 257 254 252 251 251 252 253 255 257 259 262 265 267 269 270 269 266 263 261 261 262 265 268 271 274 277 280 283 286 288 290 291 293 294 295 296 298 299 300 301 302 303 303 302 302 302 301 302 302 302 302 302 301 300 300 299 297 297 296 296 296 295 295 295 295 295 294
266 260 255 252 250 249 249 250 252 254 257 260 263 267 268 269 267 264 261 260 261 264 267 270 273 276 279 281 284 286 289 291 293 294 296 297 298 300 301 301 302 303 303 303 303 302 302 302 302 303 303 304 303 303 302 301 300 299 298 297 296 296 296 295 295 295 295 294 294
268 262 255 251 249 247 247 249 251 255 258 262 265 267 267 265 262 259 259 262 266 269 273 275 278 280 283 286 288 291 293 295 296 298 299 300 301 302 302 302 302 303 303 303 303 303 303 303 304 304 305 305 304 304 303 302 301 299 298 297 297 296 295 295 295 294 294 294 293
271 261 254 249 245 244 244 247 251 256 260 264 266 265 262 259 260 262 265 268 271 274 277 279 282 285 288 290 293 295 297 298 300 301 302 302 302 302 301 301 302 302 303 303 303 304 304 305 305 306 306 306 305 304 303 301 300 299 297 297 296 295 295 295 294 294 293 293 292
277 229 189 173 166 165 169 174 172 168 142 102 105 244 259 264 267 269 272 274 276 278 281 284 287 290 293 295 296 298 299 300 301 301 302 301 301 300 300 300 301 302 303 304 304 305 305 306 306 307 307 306 304 303 302 300 298 296 296 295 294 294 294 294 293 293 292 292 291
90 91 91 91 92 93 93 93 91 90 88 86 84 75 279 273 273 274 276 279 282 285 287 290 293 295 297 298 299 300 301 301 301 301 301 301 300 300 301 301 302 303 304 305 306 306 306 307 307 307 306 305 303 302 300 297 295 294 293 293 293 293 293 293 292 292 291 290 290
90 90 89 88 89 89 89 89 89 86 84 80 65 289 277 277 279 281 284 287 289 292 294 296 298 299 300 301 301 301 301 301 301 301 301 301 301 302 303 303 304 305 305 306 307 307 307 307 307 307 305 303 302 300 298 296 294 293 292 292 292 293 293 292 292 291 290 290 290
90 89 89 88 88 87 87 87 85 81 73 19 299 288 286 287 288 290 293 295 297 298 299 300 301 302 302 302 302 301 301 301 302 302 302 303 304 304 305 305 306 306 307 308 308 308 308 308 307 306 305 303 302 300 298 296 294 293 292 292 293 293 293 292 292 291 291 290 290
90 89 88 87 87 85 83 80 73 49 341 308 300 297 297 297 299 300 301 302 303 303 303 303 303 303 303 302 302 302 302 303 303 304 305 305 306 306 307 307 307 308 309 309 309 309 308 308 307 307 305 304 302 301 299 298 295 294 293 293 293 294 294 294 292 291 290 290 290
90 88 87 84 80 75 65 43 3 329 315 308 305 305 305 305 306 306 306 306 305 305 304 304 303 303 303 303 304 304 305 305 306 306 307 307 308 308 308 308 309 309 310 310 310 310 309 309 308 308 307 305 303 302 300 298 295 294 294 294 295 294 294 294 293 291 290 290 290
Height
1521 1522 1522 1523 1523 1523 1524 1524 1525 1526 1527 1528 1529 1529 1530 1531 1531 1532 1532 1533 1534 1535 1537 1538 1539 1539 1540 1541 1541 1542 1542 1543 1543 1544 1544 1545 1545 1546 1546 1546 1546 1546 1546 1546 1546 1546 1545 1545 1545 1545 1545 1545 1544 1544 1544 1544 1543 1543 1543 1542 1542 1541 1540 1540 1539 1538 1538 1537 1536
1520 1521 1521 1521 1521 1522 1523 1523 1524 1524 1525 1526 1527 1528 1529 1529 1530 1530 1531 1532 1533 1534 1536 1537 1537 1538 1539 1539 1540 1540 1541 1541 1542 1542 1543 1543 1544 1544 1544 1545 1545 1545 1545 1545 1545 1544 1544 1544 1544 1544 1544 1543 1543 1543 1543 1542 1542 1542 1541 1541 1540 1539 1539 1538 1538 1537 1536 1535 1534
1519 1519 1519 1519 1520 1520 1521 1522 1522 1523 1524 1525 1526 1527 1527 1528 1529 1529 1530 1531 1532 1533 1534 1535 1535 1536 1537 1538 1538 1539 1539 1540 1540 1541 1541 1542 1542 1543 1543 1543 1543 1543 1543 1543 1543 1543 1543 1543 1542 1542 1542 1542 1542 1541 1541 1541 1540 1540 1540 1539 1539 1538 1537 1537 1536 1535 1534 1534 1533
1518 1518 1518 1518 1518 1519 1519 1520 1520 1521 1523 1524 1524 1525 1526 1527 1528 1529 1529 1530 1531 1532 1532 1533 1534 1534 1535 1536 1536 1537 1538 1538 1539 1539 1539 1540 1540 1541 1541 1542 1542 1542 1542 1542 1541 1541 1541 1541 1541 1541 1540 1540 1540 1540 1539 1539 1539 1538 1538 1538 1537 1537 1536 1535 1534 1534 1533 1532 1531
1517 1517 1516 1516 1517 1517 1518 1519 1519 1520 1521 1523 1524 1524 1525 1526 1527 1527 1528 1529 1529 1530 1531 1532 1532 1533 1534 1534 1535 1535 1536 1536 1537 1537 1538 1538 1539 1539 1540 1540 1540 1540 1540 1540 1540 1540 1539 1539 1539 1539 1539 1539 1539 1538 1538 1538 1537 1537 1536 1536 1535 1535 1534 1534 1533 1532 1531 1530 1530
1515 1515 1515 1515 1515 1516 1517 1518 1519 1519 1520 1521 1522 1523 1524 1524 1525 1526 1526 1527 1528 1529 1529 1530 1531 1531 1532 1532 1533 1534 1534 1534 1535 1536 1536 1537 1537 1538 1538 1538 1539 1539 1539 1539 1538 1538 1538 1538 1538 1537 1537 1537 1537 1537 1536 1536 1536 1535 1534 1534 1534 1533 1533 1532 1531 1530 1529 1529 1528
1514 1514 1513 1514 1514 1515 1516 1516 1517 1518 1519 1520 1521 1522 1523 1523 1524 1524 1525 1526 1527 1527 1528 1528 1529 1529 1530 1531 1531 1532 1532 1533 1533 1534 1534 1535 1535 1536 1536 1537 1537 1537 1537 1537 1537 1536 1536 1536 1536 1536 1535 1535 1535 1535 1535 1534 1534 1534 1533 1533 1532 1531 1531 1530 1529 1529 1528 1527 1526
1513 1512 1512 1512 1513 1514 1514 1515 1516 1517 1518 1519 1520 1521 1521 1522 1523 1524 1524 1524 1525 1525 1526 1526 1527 1528 1528 1529 1529 1530 1530 1531 1531 1532 1533 1533 1534 1534 1535 1535 1535 1535 1535 1535 1535 1535 1535 1534 1534 1534 1534 1534 1534 1533 1533 1533 1532 1532 1532 1531 1530 1530 1529 1528 1527 1526 1526 1525 1524
1511 1511 1511 1511 1512 1512 1513 1514 1515 1516 1517 1518 1519 1519 1520 1521 1522 1522 1523 1523 1523 1524 1524 1525 1525 1526 1527 1527 1528 1528 1529 1529 1530 1530 1531 1532 1532 1533 1533 1534 1534 1534 1534 1534 1534 1533 1533 1533 1533 1532 1532 1532 1532 1532 1531 1531 1530 1530 1530 1529 1529 1528 1527 1527 1526 1524 1524 1523 1522
1510 1510 1510 1510 1511 1511 1512 1513 1514 1515 1516 1517 1518 1518 1519 1519 1520 1520 1521 1521 1522 1522 1523 1523 1524 1524 1525 1525 1526 1527 1527 1528 1528 1529 1529 1530 1531 1531 1532 1532 1532 1532 1532 1532 1532 1532 1531 1531 1531 1531 1530 1530 1530 1530 1529 1529 1529 1528 1528 1528 1527 1526 1526 1525 1524 1523 1522 1521 1520
1509 1509 1509 1509 1510 1510 1511 1512 1513 1514 1514 1515 1516 1517 1517 1518 1518 1519 1519 1520 1520 1521 1521 1521 1522 1523 1523 1524 1524 1525 1526 1526 1527 1528 1528 1529 1529 1529 1530 1530 1530 1530 1530 1530 1530 1530 1530 1529 1529 1529 1529 1529 1529 1528 1528 1527 1527 1526 1526 1525 1525 1524 1524 1523 1522 1521 1520 1519 1518
1507 1508 1508 1509 1509 1509 1510 1511 1512 1512 1513 1514 1514 1515 1516 1516 1517 1517 1518 1518 1519 1519 1519 1520 1520 1521 1522 1522 1523 1524 1524 1525 1525 1526 1527 1527 1528 1528 1529 1529 1529 1529 1529 1529 1528 1528 1528 1528 1528 1527 1527 1527 1527 1526 1526 1525 1525 1524 1524 1524 1523 1522 1522 1521 1520 1519 1518 1517 1516
1506 1507 1507 1508 1508 1509 1509 1510 1510 1511 1512 1512 1513 1514 1514 1514 1515 1515 1516 1516 1517 1517 1518 1518 1519 1519 1520 1521 1521 1522 1523 1524 1524 1525 1525 1526 1526 1527 1527 1527 1527 1527 1527 1527 1527 1527 1526 1526 1526 1526 1525 1525 1525 1524 1524 1524 1523 1523 1522 1522 1521 1520 1519 1519 1518 1517 1516 1515 1514
1505 1505 1506 1506 1507 1507 1508 1509 1509 1509 1510 1511 1511 1512 1513 1513 1514 1514 1514 1514 1515 1516 1516 1517 1517 1518 1519 1519 1520 1521 1522 1522 1523 1524 1524 1525 1525 1525 1525 1526 1526 1526 1525 1525 1525 1525 1525 1524 1524 1524 1524 1524 1523 1523 1522 1522 1521 1521 1520 1519 1519 1518 1517 1517 1516 1515 1514 1513 1512
1503 1504 1504 1505 1506 1506 1507 1507 1508 1508 1509 1509 1510 1510 1511 1512 1512 1512 1513 1513 1514 1514 1515 1515 1516 1516 1517 1518 1519 1519 1520 1521 1522 1523 1523 1523 1524 1524 1524 1524 1524 1524 1524 1524 1524 1523 1523 1523 1523 1522 1522 1522 1521 1521 1520 1520 1519 1519 1518 1517 1517 1516 1515 1514 1514 1513 1512 1511 1510
1502 1502 1503 1504 1504 1505 1505 1506 1507 1507 1508 1508 1509 1509 1509 1510 1510 1511 1511 1512 1512 1513 1513 1514 1514 1515 1516 1517 1518 1519 1519 1520 1521 1521 1522 1522 1522 1523 1523 1523 1523 1523 1523 1522 1522 1522 1521 1521 1521 1521 1520 1520 1520 1519 1519 1518 1518 1517 1516 1515 1514 1514 1513 1512 1512 1511 1510 1509 1508
1501 1501 1501 1502 1503 1504 1504 1505 1506 1506 1507 1507 1507 1508 1508 1508 1509 1509 1510 1510 1511 1511 1512 1513 1513 1514 1515 1515 1516 1517 1518 1519 1519 1520 1520 1521 1521 1521 1521 1521 1521 1521 1521 1521 1520 1520 1520 1519 1519 1519 1519 1518 1518 1517 1517 1516 1516 1515 1514 1513 1512 1512 1511 1510 1510 1509 1508 1507 1506
1499 1500 1500 1500 1501 1502 1503 1504 1504 1505 1505 1506 1506 1506 1507 1507 1507 1508 1508 1509 1509 1510 1511 1511 1512 1513 1514 1514 1515 1516 1517 1518 1519 1519 1519 1519 1520 1520 1520 1520 1520 1520 1519 1519 1519 1519 1518 1518 1517 1517 1516 1516 1516 1515 1515 1514 1514 1513 1512 1511 1510 1510 1509 1508 1508 1507 1506 1505 1504
1499 1499 1499 1499 1499 1500 1502 1503 1503 1504 1504 1504 1505 1505 1505 1505 1506 1507 1507 1508 1508 1509 1510 1510 1511 1512 1513 1514 1514 1515 1516 1517 1518 1518 1518 1519 1519 1519 1519 1518 1518 1518 1518 1518 1518 1517 1517 1516 1516 1515 1514 1514 1514 1513 1513 1512 1511 1510 1509 1509 1508 1508 1507 1506 1505 1504 1504 1503 1502
1497 1498 1497 1498 1498 1499 1500 1501 1502 1503 1503 1503 1504 1504 1504 1504 1505 1505 1506 1507 1507 1508 1509 1509 1510 1511 1512 1513 1514 1514 1515 1516 1516 1517 1517 1517 1517 1517 1517 1517 1517 1517 1516 1516 1516 1516 1515 1515 1514 1514 1513 1512 1512 1511 1510 1509 1508 1508 1507 1506 1506 1505 1504 1504 1503 1502 1501 1500 1499
1496 1496 1496 1496 1497 1498 1499 1500 1501 1501 1502 1502 1502 1503 1503 1503 1504 1505 1505 1506 1506 1507 1507 1508 1509 1510 1511 1512 1513 1514 1514 1515 1515 1515 1516 1516 1516 1516 1516 1515 1515 1515 1515 1514 1514 1514 1514 1513 1513 1512 1511 1510 1509 1509 1508 1507 1506 1505 1504 1503 1503 1502 1502 1501 1500 1500 1499 1498 1497
1495 1495 1495 1495 1496 1497 1498 1499 1499 1500 1500 1501 1501 1502 1502 1503 1503 1504 1504 1505 1505 1506 1506 1507 1508 1509 1510 1511 1512 1513 1513 1514 1514 1514 1514 1514 1514 1514 1514 1514 1514 1514 1513 1513 1513 1513 1512 1512 1511 1510 1509 1509 1508 1507 1505 1504 1503 1502 1501 1501 1500 1499 1499 1498 1498 1497 1496 1495 1494
1494 1494 1494 1494 1495 1496 1497 1498 1498 1499 1499 1500 1500 1501 1501 1502 1503 1503 1503 1504 1504 1504 1505 1506 1507 1508 1509 1510 1511 1512 1512 1512 1513 1513 1513 1513 1513 1513 1513 1513 1513 1512 1512 1512 1511 1511 1511 1510 1509 1509 1508 1507 1506 1504 1503 1502 1501 1500 1499 1498 1497 1497 1496 1495 1495 1494 1493 1493 1492
1493 1493 1493 1494 1494 1495 1496 1497 1497 1498 1498 1499 1499 1500 1500 1501 1501 1502 1502 1503 1503 1504 1504 1505 1506 1507 1508 1509 1510 1510 1511 1511 1511 1511 1512 1512 1512 1511 1511 1511 1511 1511 1511 1510 1510 1509 1509 1509 1508 1507 1506 1504 1504 1502 1501 1500 1499 1498 1497 1496 1495 1494 1493 1493 1492 1491 1490 1490 1489
1492 1492 1493 1493 1494 1494 1495 1496 1496 1497 1497 1498 1498 1499 1499 1500 1500 1501 1501 1502 1503 1503 1504 1505 1506 1507 1508 1508 1509 1509 1509 1510 1510 1510 1510 1510 1510 1510 1510 1509 1509 1509 1509 1509 1509 1508 1507 1507 1506 1504 1504 1502 1501 1500 1499 1498 1497 1496 1494 1494 1493 1491 1490 1490 1489 1489 1488 1487 1487
1491 1491 1492 1493 1493 1494 1494 1495 1495 1496 1496 1497 1497 1498 1498 1499 1499 1500 1501 1501 1502 1503 1503 1504 1505 1506 1507 1507 1508 1508 1508 1509 1509 1509 1509 1509 1509 1508 1508 1508 1508 1508 1508 1507 1507 1506 1505 1504 1503 1502 1501 1499 1499 1497 1496 1495 1494 1493 1492 1491 1489 1489 1488 1487 1486 1485 1485 1484 1484
1490 1490 1491 1492 1492 1493 1493 1494 1494 1495 1495 1496 1496 1497 1498 1498 1499 1499 1500 1500 1501 1502 1503 1504 1504 1505 1506 1506 1507 1507 1507 1508 1508 1508 1507 1507 1507 1507 1507 1506 1506 1506 1506 1505 1505 1504 1503 1502 1501 1499 1498 1497 1496 1494 1494 1492 1491 1490 1489 1488 1486 1485 1484 1483 1483 1482 1482 1481 1480
1489 1489 1490 1490 1491 1492 1492 1493 1493 1494 1494 1495 1496 1496 1497 1497 1498 1499 1499 1500 1501 1502 1502 1503 1504 1504 1505 1505 1506 1506 1506 1506 1506 1506 1506 1506 1506 1505 1505 1505 1504 1504 1504 1503 1503 1502 1501 1499 1499 1497 1496 1494 1493 1492 1490 1489 1488 1487 1485 1484 1483 1482 1481 1480 1479 1479 1478 1478 1477
1488 1488 1489 1489 1490 1490 1491 1492 1492 1493 1494 1494 1495 1495 1496 1497 1497 1498 1499 1499 1500 1501 1502 1502 1503 1504 1504 1504 1505 1505 1505 1505 1505 1505 1504 1504 1504 1504 1504 1503 1503 1502 1502 1501 1500 1499 1498 1497 1496 1495 1494 1493 1491 1489 1488 1486 1485 1484 1482 1481 1480 1479 1478 1477 1477 1476 1475 1474 1474
1487 1487 1488 1488 1489 1489 1490 1491 1491 1492 1493 1494 1494 1495 1495 1496 1497 1498 1498 1499 1500 1500 1501 1502 1502 1503 1503 1504 1504 1504 1504 1504 1504 1503 1503 1503 1503 1502 1502 1501 1501 1500 1500 1499 1498 1497 1496 1495 1494 1493 1492 1491 1489 1487 1486 1484 1483 1481 1479 1478 1477 1476 1476 1475 1474 1474 1473 1472 1472
1486 1486 1487 1488 1488 1489 1489 1490 1491 1491 1492 1493 1494 1494 1495 1496 1496 1497 1498 1499 1499 1500 1500 1501 1502 1502 1502 1503 1503 1503 1503 1502 1502 1502 1502 1501 1501 1500 1500 1499 1499 1498 1497 1497 1496 1495 1494 1493 1492 1491 1490 1489 1487 1485 1484 1482 1480 1479 1477 1476 1475 1474 1474 1473 1472 1471 1471 1470 1470
1485 1486 1486 1487 1487 1488 1489 1489 1490 1491 1492 1493 1493 1494 1495 1495 1496 1497 1497 1498 1499 1499 1500 1500 1501 1501 1501 1501 1501 1501 1501 1501 1501 1500 1500 1499 1499 1498 1497 1497 1496 1495 1495 1494 1493 1493 1491 1490 1489 1488 1487 1486 1484 1483 1481 1479 1478 1476 1475 1474 1473 1472 1471 1470 1470 1469 1469 1468 1468
1485 1485 1486 1486 1487 1488 1488 1489 1490 1490 1491 1492 1493 1494 1494 1495 1496 1496 1497 1498 1498 1499 1499 1500 1500 1500 1500 1500 1500 1500 1500 1499 1499 1499 1498 1497 1496 1495 1494 1494 1493 1493 1493 1492 1491 1490 1489 1488 1487 1485 1484 1483 1482 1480 1478 1477 1475 1474 1472 1471 1470 1469 1469 1468 1467 1467 1466 1466 1465
1485 1485 1485 1486 1487 1487 1488 1489 1489 1490 1491 1492 1493 1493 1494 1495 1495 1496 1497 1497 1498 1498 1499 1499 1499 1499 1499 1499 1499 1499 1498 1498 1497 1497 1496 1495 1494 1493 1492 1491 1491 1491 1490 1489 1489 1487 1486 1485 1484 1483 1481 1480 1479 1477 1475 1474 1473 1471 1470 1469 1468 1467 1466 1466 1465 1464 1464 1464 1463
1484 1485 1485 1486 1487 1487 1488 1489 1489 1490 1491 1492 1493 1493 1494 1494 1495 1496 1496 1497 1497 1498 1498 1498 1498 1498 1498 1498 1497 1497 1497 1496 1495 1494 1494 1493 1492 1491 1490 1489 1489 1489 1488 1487 1486 1484 1484 1482 1481 1480 1479 1477 1476 1474 1473 1471 1470 1469 1467 1466 1465 1464 1464 1463 1463 1462 1462 1461 1461
1485 1485 1486 1486 1487 1488 1488 1489 1489 1490 1491 1492 1493 1493 1494 1494 1495 1496 1496 1497 1497 1497 1497 1497 1497 1497 1497 1496 1496 1495 1495 1494 1493 1493 1492 1491 1490 1489 1488 1487 1486 1486 1485 1484 1483 1482 1481 1479 1479 1477 1476 1475 1473 1472 1470 1469 1467 1466 1465 1464 1463 1462 1461 1461 1460 1460 1459 1459 1459
1485 1486 1486 1487 1487 1488 1489 1489 1490 1491 1491 1492 1493 1494 1494 1495 1495 1495 1496 1496 1496 1496 1496 1496 1496 1496 1495 1495 1494 1494 1493 1492 1491 1491 1490 1489 1488 1487 1486 1484 1484 1483 1483 1482 1480 1479 1478 1477 1476 1475 1474 1473 1471 1469 1468 1467 1465 1464 1463 1461 1460 1459 1459 1459 1458 1457 1457 1456 1456
1486 1486 1487 1488 1488 1489 1489 1490 1490 1491 1492 1492 1493 1494 1494 1494 1495 1495 1495 1495 1496 1495 1495 1495 1494 1494 1493 1493 1492 1491 1491 1490 1489 1489 1488 1487 1486 1485 1483 1482 1480 1480 1479 1479 1478 1476 1475 1474 1474 1473 1472 1470 1469 1467 1466 1464 1463 1462 1460 1459 1458 1457 1456 1456 1455 1455 1454 1454 1454
1487 1487 1488 1488 1489 1489 1490 1490 1491 1492 1492 1493 1493 1494 1494 1494 1495 1495 1495 1495 1494 1494 1494 1493 1493 1492 1492 1491 1490 1489 1489 1488 1488 1486 1485 1484 1483 1482 1480 1479 1477 1477 1476 1476 1475 1474 1473 1472 1471 1470 1469 1468 1467 1465 1464 1462 1461 1459 1458 1457 1456 1454 1454 1454 1453 1452 1452 1451 1451
1488 1488 1489 1489 1489 1490 1491 1491 1492 1492 1493 1493 1494 1494 1494 1494 1494 1494 1494 1493 1493 1492 1492 1491 1491 1490 1490 1489 1488 1487 1486 1486 1485 1484 1483 1481 1480 1479 1478 1476 1475 1474 1473 1473 1472 1471 1470 1470 1469 1468 1467 1466 1464 1463 1462 1460 1459 1457 1456 1454 1454 1453 1451 1451 1450 1450 1449 1449 1449
1489 1489 1489 1490 1490 1491 1491 1492 1492 1493 1493 1493 1493 1493 1493 1493 1493 1493 1492 1492 1491 1491 1490 1490 1489 1489 1488 1487 1486 1485 1484 1483 1482 1481 1480 1479 1478 1476 1475 1474 1473 1471 1471 1470 1470 1469 1468 1467 1466 1465 1464 1464 1462 1460 1459 1458 1456 1454 1453 1452 1451 1450 1449 1449 1448 1448 1447 1447 1446